Location: Arthez
(43.0833°N, 0.2500°W)
Time: 06:19:39
(UTC+00:00)

Cosmos 304 Rocket - Pass Details

Date: 05 June 2022
Orbit: 679 x 686 km, 74.0° (Epoch: 03 July)

Event Time Altitude Azimuth Distance (km) Brightness Sun altitude
Exits shadow 00:51:24 - 273° (W) 2,279 6.3 -23.3°
Reaches altitude 10° 00:52:08 10° 281° (W) 2,137 6.3 -23.3°
Maximum altitude 00:54:21 13° 308° (NW) 1,940 6.4 -23.2°
Drops below altitude 10° 00:56:35 10° 336° (NNW) 2,142 7.0 -23.1°
Sets 01:00:13 0° 4° (N) 3,063 8.5 -22.9°
